North Myrtle Beach, SC

4:38 AM EST on November 20, 2019 (GMT -0500)
Grand Strand

Weather History for KCRE - August, 2019

Change the Weather History Date:

Sunday, August 18, 2019

  Actual Average Record
Temperature  
Mean Temperature 82 °F 79 °F  
Max Temperature 87 °F 86 °F 97 °F (1951)
Min Temperature 77 °F 72 °F 65 °F (1960)
Degree Days  
Heating Degree Days 0 0  
Month to date heating degree days 0 0  
Since 1 June heating degree days 0 0  
Since 1 July heating degree days 0 0  
Cooling Degree Days 17 14  
Month to date cooling degree days 296 257  
Year to date cooling degree days 1588 1302  
Since 1 June cooling degree days 1195 1090  
Growing Degree Days 32 (Base 50)    
Moisture  
Dew Point 75 °F    
Average Humidity 79    
Maximum Humidity 94    
Minimum Humidity 63    
Precipitation  
Precipitation 0.05 in 0.27 in 1.65 in (1994)
Month to date precipitation 7.99 3.91  
Year to date precipitation 31.00 31.85  
Sea Level Pressure  
Sea Level Pressure 30.01 in    
Wind  
Wind Speed 10 mph (SW)    
Max Wind Speed 18 mph    
Max Gust Speed 23 mph    
Visibility 10 miles    
Events Rain    
T = Trace of Precipitation, MM = Missing Value Source: NWS Daily Summary

Daily Weather History Graph

Daily Weather History Graph

Search for Another Location

Airport or City:

Astronomy

Aug. 18, 2019 Rise Set
Actual Time 6:38 AM EDT 7:58 PM EDT
Civil Twilight 6:12 AM EDT 8:24 PM EDT
Nautical Twilight 5:41 AM EDT 8:55 PM EDT
Astronomical Twilight 5:08 AM EDT 9:28 PM EDT
Moon 9:59 PM EDT (8/18) 9:16 AM EDT (8/18)
Length of Visible Light 14h 11m
Length of Day
13h 19m
Waning Gibbous, 91% of the Moon is Illuminated
Aug 18
Waning Gibbous
Aug 23
Last Quarter
Aug 30
New
Sep 5
First Quarter
Sep 14
Full

Hourly Weather History & Observations

Time (EDT) Temp. Heat Index Dew Point Humidity Pressure Visibility Wind Dir Wind Speed Gust Speed Precip Events Conditions
12:00 AM 81.0 °F 87.3 °F 75.9 °F 85% 29.96 in 10.0 mi South 8.1 mph - N/A   Overcast
12:53 AM 80.1 °F 85.8 °F 77.0 °F 90% 29.95 in 10.0 mi SW 8.1 mph - 0.00 in Rain Light Rain
1:26 AM 79.0 °F - 75.9 °F 90% 29.96 in 10.0 mi SW 12.7 mph - 0.00 in   Overcast
1:33 AM 79.0 °F - 75.9 °F 90% 29.96 in 10.0 mi SW 11.5 mph - 0.00 in   Overcast
1:39 AM 79.0 °F - 75.9 °F 90% 29.96 in 10.0 mi SW 10.4 mph - 0.00 in   Overcast
1:53 AM 79.0 °F - 75.0 °F 88% 29.97 in 10.0 mi SW 15.0 mph - 0.00 in   Overcast
2:03 AM 78.1 °F - 75.0 °F 90% 29.97 in 8.0 mi WSW 11.5 mph 23.0 mph 0.00 in Rain Light Rain
2:34 AM 78.1 °F - 75.0 °F 90% 29.97 in 10.0 mi WSW 12.7 mph - 0.00 in Rain Light Rain
2:53 AM 78.1 °F - 75.0 °F 90% 29.99 in 10.0 mi WSW 10.4 mph - 0.00 in   Overcast
3:08 AM 78.1 °F - 75.0 °F 90% 29.98 in 10.0 mi WSW 15.0 mph - N/A   Overcast
3:29 AM 77.0 °F - 73.9 °F 90% 29.97 in 10.0 mi WSW 11.5 mph - 0.00 in   Overcast
3:53 AM 77.0 °F - 73.9 °F 90% 29.97 in 5.0 mi West 11.5 mph - 0.01 in Rain Rain
4:46 AM 77.0 °F - 75.0 °F 94% 29.97 in 10.0 mi West 4.6 mph - 0.04 in   Overcast
4:53 AM 77.0 °F - 75.0 °F 94% 29.98 in 10.0 mi West 4.6 mph - 0.04 in   Overcast
5:34 AM 77.0 °F - 73.9 °F 90% 29.98 in 10.0 mi West 3.5 mph - N/A   Scattered Clouds
5:53 AM 77.0 °F - 73.9 °F 90% 29.99 in 10.0 mi WSW 3.5 mph - N/A   Mostly Cloudy
6:06 AM 77.0 °F - 75.0 °F 94% 29.99 in 10.0 mi Calm Calm - N/A   Mostly Cloudy
6:46 AM 77.0 °F - 75.0 °F 94% 30.00 in 10.0 mi Calm Calm - N/A   Overcast
6:53 AM 77.0 °F - 75.0 °F 94% 30.00 in 10.0 mi Calm Calm - N/A   Overcast
7:18 AM 77.0 °F - 75.0 °F 94% 30.01 in 10.0 mi South 4.6 mph - N/A   Overcast
7:53 AM 77.0 °F - 73.9 °F 90% 30.03 in 10.0 mi WSW 5.8 mph - N/A   Overcast
8:53 AM 78.1 °F - 73.9 °F 87% 30.04 in 10.0 mi WSW 5.8 mph - N/A   Overcast
9:53 AM 79.0 °F - 75.0 °F 88% 30.05 in 10.0 mi WSW 6.9 mph - N/A   Overcast
10:00 AM 80.1 °F 85.1 °F 75.0 °F 85% 30.05 in 10.0 mi WSW 9.2 mph - N/A   Overcast
10:53 AM 82.0 °F 87.4 °F 73.0 °F 74% 30.06 in 10.0 mi WSW 5.8 mph - N/A   Mostly Cloudy
11:53 AM 84.0 °F 91.2 °F 73.9 °F 72% 30.05 in 10.0 mi West 6.9 mph - N/A   Mostly Cloudy
12:53 PM 87.1 °F 95.4 °F 73.9 °F 65% 30.06 in 10.0 mi North - - N/A   Scattered Clouds
1:36 PM 84.0 °F 92.6 °F 75.9 °F 76% 30.05 in 10.0 mi SSW 13.8 mph - N/A   Scattered Clouds
1:53 PM 84.9 °F 94.1 °F 75.9 °F 74% 30.06 in 10.0 mi SW 11.5 mph - N/A   Mostly Cloudy
2:35 PM 84.9 °F 94.1 °F 75.9 °F 74% 30.04 in 10.0 mi SSW 11.5 mph - N/A   Scattered Clouds
2:53 PM 84.9 °F 95.3 °F 77.0 °F 77% 30.05 in 10.0 mi SSW 16.1 mph - N/A   Partly Cloudy
3:53 PM 84.0 °F 92.6 °F 75.9 °F 76% 30.03 in 10.0 mi SSW 17.3 mph - N/A   Clear
4:53 PM 84.9 °F 94.1 °F 75.9 °F 74% 30.01 in 10.0 mi SSW 15.0 mph - N/A   Clear
5:53 PM 84.9 °F 95.3 °F 77.0 °F 77% 30.01 in 10.0 mi SSW 13.8 mph - N/A   Clear
6:53 PM 84.0 °F 93.7 °F 77.0 °F 79% 30.00 in 10.0 mi SSW 10.4 mph - N/A   Clear
7:53 PM 82.9 °F 90.8 °F 75.9 °F 79% 30.00 in 10.0 mi SSW 12.7 mph - N/A   Clear
8:53 PM 82.9 °F 90.8 °F 75.9 °F 79% 30.01 in 10.0 mi SSW 11.5 mph - N/A   Clear
9:53 PM 82.9 °F 90.8 °F 75.9 °F 79% 30.03 in 10.0 mi SSW 11.5 mph - N/A   Clear
10:53 PM 82.0 °F 89.4 °F 75.9 °F 82% 30.04 in 10.0 mi SW 12.7 mph - N/A   Clear
11:53 PM 81.0 °F 87.3 °F 75.9 °F 85% 30.05 in 10.0 mi SW 10.4 mph - N/A   Scattered Clouds